sat.trackr.live / text

‹ back to catalog

STARLINK-37181

NORAD 68341 · 2026-059W

PAYLOAD ACTIVE UNKNOWN

§ Identity

Operator
Country
US
Launch date
2026-03-22
Launch site
AFETR
Launch vehicle
Mass (kg)
RCS (m²)

Purposes: comms

External: N2YO · Heavens-Above · Gunter

§ Orbital elements

Epoch: 2026-05-24T14:20:06.224928Z

Period
93.85 min
Inclination
53.1588°
Eccentricity
0.0002954
Mean motion
15.34429703 rev/d
Perigee alt
460.6 km
Apogee alt
464.6 km
Semi-major
6,840.8 km
B*
8.1677e-4
RAAN
351.6695°
Arg perigee
93.0619°
Mean anomaly
267.0721°
Rev number
985

§ Raw data

STARLINK-371811 68341U 26059W   26144.59729427  .00027348  00000+0  81677-3 0  99912 68341  53.1588 351.6695 0002954  93.0619 267.0721 15.34429703  9852

JSON: /api/v1/satellites/68341 · /tle

For live sub-satellite position, see the globe view (requires WebGL).

§ Visibility from observer

Set your observer location to see the next 7 days of passes ≥ 10°. The values pass through the URL so the page stays shareable.

No JS? Fill the form by hand. The geolocation button needs JavaScript.